Time,TemperatureF,DewpointF,PressureIn,WindDirection,WindDirectionDegrees,WindSpeedMPH,WindSpeedGustMPH,Humidity,HourlyPrecipIn,Conditions,Clouds,dailyrainin,SoftwareType,DateUTC
2013-04-01 00:05:00,43.0,39.7,29.74,NE,52,0.0,0.0,88,0.01,-RA,,0.01,WeatherDisplay:10.37,2013-04-01 04:05:00,
2013-04-01 00:10:00,42.8,39.8,29.74,NE,50,0.0,0.0,89,0.01,-RA,,0.02,WeatherDisplay:10.37,2013-04-01 04:10:00,
2013-04-01 00:15:00,42.6,39.9,29.74,ENE,62,0.0,0.0,90,0.01,-RA,,0.03,WeatherDisplay:10.37,2013-04-01 04:15:00,
2013-04-01 00:25:00,42.4,39.9,29.74,ENE,71,0.0,0.0,91,0.00,OVC,,0.03,WeatherDisplay:10.37,2013-04-01 04:25:00,
2013-04-01 00:30:00,42.2,39.8,29.74,ENE,68,0.0,0.0,91,0.01,RA,,0.04,WeatherDisplay:10.37,2013-04-01 04:30:00,
2013-04-01 00:35:00,42.1,39.7,29.73,ENE,71,0.0,3.0,91,0.01,-RA,,0.05,WeatherDisplay:10.37,2013-04-01 04:35:00,
2013-04-01 00:45:00,41.9,39.7,29.72,ENE,76,0.0,1.0,92,0.01,-RA,,0.07,WeatherDisplay:10.37,2013-04-01 04:45:00,
2013-04-01 00:50:00,41.9,39.7,29.72,ENE,74,0.0,2.0,92,0.02,-RA,,0.09,WeatherDisplay:10.37,2013-04-01 04:50:00,
2013-04-01 00:55:00,41.8,39.9,29.71,ENE,67,0.0,1.0,93,0.00,-RA,,0.09,WeatherDisplay:10.37,2013-04-01 04:55:00,
2013-04-01 01:00:00,41.8,39.9,29.71,ENE,65,2.0,4.0,93,0.01,-RA,,0.10,WeatherDisplay:10.37,2013-04-01 05:00:00,
2013-04-01 01:05:00,41.7,39.8,29.70,ENE,59,0.0,3.0,93,0.01,RA,,0.11,WeatherDisplay:10.37,2013-04-01 05:05:00,
2013-04-01 01:10:00,41.7,39.9,29.70,ENE,61,0.0,3.0,93,0.00,RA,,0.11,WeatherDisplay:10.37,2013-04-01 05:10:00,
2013-04-01 01:15:00,41.8,39.9,29.69,ENE,67,2.0,5.0,93,0.01,RA,,0.12,WeatherDisplay:10.37,2013-04-01 05:15:00,
2013-04-01 01:25:00,41.8,39.9,29.68,NE,49,0.0,2.0,93,0.01,-RA,,0.13,WeatherDisplay:10.37,2013-04-01 05:25:00,
2013-04-01 01:30:00,41.8,40.2,29.67,NE,43,0.0,3.0,94,0.00,-RA,,0.13,WeatherDisplay:10.37,2013-04-01 05:30:00,
2013-04-01 01:40:00,41.8,40.2,29.67,NE,37,0.0,3.0,94,0.00,-RA,,0.14,WeatherDisplay:10.37,2013-04-01 05:40:00,
2013-04-01 01:45:00,41.9,40.3,29.66,ENE,68,0.0,3.0,94,0.01,-RA,,0.15,WeatherDisplay:10.37,2013-04-01 05:45:00,
2013-04-01 01:55:00,41.9,40.3,29.65,North,9,0.0,1.0,94,0.01,-RA,,0.17,WeatherDisplay:10.37,2013-04-01 05:55:00,
2013-04-01 02:05:00,41.9,40.3,29.65,North,5,0.0,2.0,94,0.01,-RA,,0.20,WeatherDisplay:10.37,2013-04-01 06:05:00,
2013-04-01 02:10:00,41.9,40.3,29.64,North,11,0.0,0.0,94,0.01,-RA,,0.21,WeatherDisplay:10.37,2013-04-01 06:10:00,
2013-04-01 02:20:00,42.0,40.7,29.63,NNE,21,1.0,2.0,95,0.03,RA,,0.27,WeatherDisplay:10.37,2013-04-01 06:20:00,
2013-04-01 02:25:00,41.9,40.6,29.62,North,350,2.0,5.0,95,0.02,RA,,0.29,WeatherDisplay:10.37,2013-04-01 06:25:00,
2013-04-01 02:30:00,41.9,40.6,29.62,North,354,0.0,2.0,95,0.00,RA,,0.29,WeatherDisplay:10.37,2013-04-01 06:30:00,
2013-04-01 02:35:00,41.9,40.6,29.62,North,10,0.0,4.0,95,0.01,RA,,0.30,WeatherDisplay:10.37,2013-04-01 06:35:00,
2013-04-01 02:40:00,41.9,40.6,29.62,NNE,24,1.0,4.0,95,0.00,RA,,0.30,WeatherDisplay:10.37,2013-04-01 06:40:00,
2013-04-01 02:45:00,41.8,40.5,29.61,NNE,29,2.0,6.0,95,0.01,RA,,0.31,WeatherDisplay:10.37,2013-04-01 06:45:00,
2013-04-01 02:55:00,41.6,40.3,29.60,NNE,12,2.0,5.0,95,0.00,OVC,,0.31,WeatherDisplay:10.37,2013-04-01 06:55:00,
2013-04-01 03:05:00,41.5,40.2,29.59,North,8,1.0,3.0,95,0.00,-RA,,0.32,WeatherDisplay:10.37,2013-04-01 07:05:00,
2013-04-01 03:10:00,41.4,40.1,29.59,North,8,1.0,4.0,95,0.00,-RA,,0.32,WeatherDisplay:10.37,2013-04-01 07:10:00,
2013-04-01 03:15:00,41.3,40.0,29.59,North,11,1.0,5.0,95,0.00,-RA,,0.32,WeatherDisplay:10.37,2013-04-01 07:15:00,
2013-04-01 03:20:00,41.3,40.0,29.59,NNE,30,0.0,4.0,95,0.01,-RA,,0.33,WeatherDisplay:10.37,2013-04-01 07:20:00,
2013-04-01 03:25:00,41.3,40.0,29.58,NE,36,0.0,2.0,95,0.00,-RA,,0.33,WeatherDisplay:10.37,2013-04-01 07:25:00,
2013-04-01 03:30:00,41.3,40.0,29.57,NNE,33,0.0,4.0,95,0.00,-RA,,0.33,WeatherDisplay:10.37,2013-04-01 07:30:00,
2013-04-01 03:35:00,41.3,40.0,29.57,NNE,30,0.0,3.0,95,0.00,-RA,,0.33,WeatherDisplay:10.37,2013-04-01 07:35:00,
2013-04-01 03:40:00,41.3,39.9,29.58,NNE,13,0.0,3.0,95,0.00,-RA,,0.33,WeatherDisplay:10.37,2013-04-01 07:40:00,
2013-04-01 03:45:00,41.2,39.9,29.58,NNE,21,0.0,1.0,95,0.00,-RA,,0.33,WeatherDisplay:10.37,2013-04-01 07:45:00,
2013-04-01 03:50:00,41.2,39.9,29.58,NE,34,0.0,0.0,95,0.00,-RA,,0.33,WeatherDisplay:10.37,2013-04-01 07:50:00,
2013-04-01 03:55:00,41.2,39.9,29.57,NNE,31,1.0,2.0,95,0.00,-RA,,0.33,WeatherDisplay:10.37,2013-04-01 07:55:00,
2013-04-01 04:00:00,41.2,39.9,29.57,NNE,18,0.0,3.0,95,0.00,-RA,,0.33,WeatherDisplay:10.37,2013-04-01 08:00:00,
2013-04-01 04:05:00,41.2,39.9,29.57,NNE,21,0.0,0.0,95,0.00,-DZ,,0.33,WeatherDisplay:10.37,2013-04-01 08:05:00,
2013-04-01 04:15:00,41.2,39.9,29.57,North,3,0.0,2.0,95,0.00,-DZ,,0.33,WeatherDisplay:10.37,2013-04-01 08:15:00,
2013-04-01 04:20:00,41.2,39.9,29.56,NNE,12,0.0,4.0,95,0.00,-DZ,,0.33,WeatherDisplay:10.37,2013-04-01 08:20:00,
2013-04-01 04:30:00,41.3,39.9,29.56,North,8,0.0,4.0,95,0.00,-DZ,,0.33,WeatherDisplay:10.37,2013-04-01 08:30:00,
2013-04-01 04:40:00,41.3,40.0,29.55,NNW,348,1.0,3.0,95,0.00,-DZ,,0.33,WeatherDisplay:10.37,2013-04-01 08:40:00,
2013-04-01 04:45:00,41.3,40.0,29.56,North,1,0.0,7.0,95,0.00,-DZ,,0.33,WeatherDisplay:10.37,2013-04-01 08:45:00,
2013-04-01 04:50:00,41.3,40.0,29.56,North,4,0.0,2.0,95,0.00,-DZ,,0.33,WeatherDisplay:10.37,2013-04-01 08:50:00,
2013-04-01 04:55:00,41.3,40.0,29.57,North,357,0.0,3.0,95,0.00,-DZ,,0.33,WeatherDisplay:10.37,2013-04-01 08:55:00,
2013-04-01 05:05:00,41.3,40.0,29.57,NW,312,0.0,1.0,95,0.00,-DZ,,0.33,WeatherDisplay:10.37,2013-04-01 09:05:00,
2013-04-01 05:10:00,41.3,40.0,29.57,WNW,293,0.0,0.0,95,0.00,-DZ,,0.33,WeatherDisplay:10.37,2013-04-01 09:10:00,
2013-04-01 05:20:00,41.3,40.2,29.57,WNW,298,0.0,0.0,96,0.00,-DZ,,0.33,WeatherDisplay:10.37,2013-04-01 09:20:00,
2013-04-01 05:30:00,41.3,40.2,29.57,NW,313,0.0,0.0,96,0.00,-DZ,,0.33,WeatherDisplay:10.37,2013-04-01 09:30:00,
2013-04-01 05:40:00,41.2,40.1,29.57,NW,311,0.0,0.0,96,0.00,-DZ,,0.33,WeatherDisplay:10.37,2013-04-01 09:40:00,
2013-04-01 05:45:00,41.2,40.1,29.57,NW,311,0.0,0.0,96,0.00,-DZ,,0.33,WeatherDisplay:10.37,2013-04-01 09:45:00,
2013-04-01 05:50:00,41.2,39.8,29.58,NW,310,0.0,0.0,95,0.00,-DZ,,0.33,WeatherDisplay:10.37,2013-04-01 09:50:00,
2013-04-01 05:55:00,41.1,39.8,29.58,NW,306,0.0,0.0,95,0.00,-DZ,,0.33,WeatherDisplay:10.37,2013-04-01 09:55:00,
2013-04-01 06:00:00,41.1,39.8,29.58,WNW,299,0.0,0.0,95,0.00,-DZ,,0.33,WeatherDisplay:10.37,2013-04-01 10:00:00,
2013-04-01 06:05:00,41.1,39.8,29.58,WNW,290,0.0,0.0,95,0.00,-DZ,,0.33,WeatherDisplay:10.37,2013-04-01 10:05:00,
2013-04-01 06:10:00,41.1,39.8,29.58,WNW,285,0.0,1.0,95,0.00,-DZ,,0.33,WeatherDisplay:10.37,2013-04-01 10:10:00,
2013-04-01 06:15:00,41.1,39.8,29.59,WNW,285,0.0,2.0,95,0.00,-DZ,,0.33,WeatherDisplay:10.37,2013-04-01 10:15:00,
2013-04-01 06:20:00,41.1,40.0,29.59,West,268,0.0,0.0,96,0.00,-DZ,,0.33,WeatherDisplay:10.37,2013-04-01 10:20:00,
2013-04-01 06:25:00,41.1,40.0,29.60,West,267,0.0,2.0,96,0.00,-DZ,,0.33,WeatherDisplay:10.37,2013-04-01 10:25:00,
2013-04-01 06:30:00,41.1,40.0,29.60,WNW,284,0.0,3.0,96,0.00,-DZ,,0.33,WeatherDisplay:10.37,2013-04-01 10:30:00,
2013-04-01 06:35:00,41.0,39.7,29.60,WNW,296,1.0,3.0,95,0.00,-DZ,,0.33,WeatherDisplay:10.37,2013-04-01 10:35:00,
2013-04-01 06:40:00,41.0,39.9,29.60,WNW,301,0.0,1.0,96,0.00,-DZ,,0.33,WeatherDisplay:10.37,2013-04-01 10:40:00,
2013-04-01 06:50:00,40.9,39.8,29.61,West,279,1.0,3.0,96,0.00,-DZ,,0.33,WeatherDisplay:10.37,2013-04-01 10:50:00,
2013-04-01 06:55:00,40.9,39.8,29.60,WNW,283,1.0,3.0,96,0.00,-DZ,,0.33,WeatherDisplay:10.37,2013-04-01 10:55:00,
2013-04-01 07:00:00,40.9,39.8,29.60,West,281,0.0,2.0,96,0.00,-DZ,,0.33,WeatherDisplay:10.37,2013-04-01 11:00:00,
2013-04-01 07:05:00,40.8,39.8,29.61,West,279,1.0,3.0,96,0.00,OVC,,0.33,WeatherDisplay:10.37,2013-04-01 11:05:00,
2013-04-01 07:10:00,40.8,39.7,29.61,West,276,1.0,3.0,96,0.00,OVC,,0.33,WeatherDisplay:10.37,2013-04-01 11:10:00,
2013-04-01 07:15:00,40.9,39.8,29.61,West,272,0.0,2.0,96,0.00,OVC,,0.33,WeatherDisplay:10.37,2013-04-01 11:15:00,
2013-04-01 07:20:00,40.9,39.8,29.61,West,268,1.0,2.0,96,0.00,OVC,,0.33,WeatherDisplay:10.37,2013-04-01 11:20:00,
2013-04-01 07:25:00,40.9,39.8,29.62,West,273,0.0,2.0,96,0.00,OVC,,0.33,WeatherDisplay:10.37,2013-04-01 11:25:00,
2013-04-01 07:30:00,40.9,39.8,29.62,WNW,283,0.0,3.0,96,0.00,OVC,,0.33,WeatherDisplay:10.37,2013-04-01 11:30:00,
2013-04-01 07:35:00,40.9,39.8,29.62,WNW,284,0.0,1.0,96,0.00,OVC,,0.33,WeatherDisplay:10.37,2013-04-01 11:35:00,
2013-04-01 07:40:00,40.9,39.8,29.62,WNW,284,0.0,2.0,96,0.00,OVC,,0.33,WeatherDisplay:10.37,2013-04-01 11:40:00,
2013-04-01 07:45:00,40.9,39.8,29.61,WNW,295,0.0,4.0,96,0.01,RA,,0.34,WeatherDisplay:10.37,2013-04-01 11:45:00,
2013-04-01 07:55:00,40.9,39.8,29.61,West,280,0.0,0.0,96,0.00,OVC,,0.34,WeatherDisplay:10.37,2013-04-01 11:55:00,
2013-04-01 08:00:00,41.0,39.9,29.61,WSW,251,0.0,0.0,96,0.00,OVC,,0.34,WeatherDisplay:10.37,2013-04-01 12:00:00,
2013-04-01 08:05:00,41.1,40.0,29.61,WSW,242,0.0,3.0,96,0.00,OVC,,0.34,WeatherDisplay:10.37,2013-04-01 12:05:00,
2013-04-01 08:10:00,41.1,40.0,29.61,West,268,0.0,1.0,96,0.00,OVC,,0.34,WeatherDisplay:10.37,2013-04-01 12:10:00,
2013-04-01 08:15:00,41.2,39.8,29.60,West,263,1.0,2.0,95,0.00,OVC,,0.34,WeatherDisplay:10.37,2013-04-01 12:15:00,
2013-04-01 08:20:00,41.3,40.2,29.60,West,264,0.0,2.0,96,0.00,OVC,,0.34,WeatherDisplay:10.37,2013-04-01 12:20:00,
2013-04-01 08:25:00,41.4,40.3,29.60,WNW,287,0.0,1.0,96,0.00,OVC,,0.34,WeatherDisplay:10.37,2013-04-01 12:25:00,
2013-04-01 08:30:00,41.5,40.4,29.60,West,260,0.0,2.0,96,0.00,OVC,,0.34,WeatherDisplay:10.37,2013-04-01 12:30:00,
2013-04-01 08:40:00,41.8,40.7,29.60,WSW,257,1.0,5.0,96,0.00,OVC,,0.34,WeatherDisplay:10.37,2013-04-01 12:40:00,
2013-04-01 08:45:00,41.9,40.6,29.60,WNW,293,1.0,2.0,95,0.00,OVC,,0.34,WeatherDisplay:10.37,2013-04-01 12:45:00,
2013-04-01 08:50:00,42.0,40.7,29.60,NW,308,0.0,2.0,95,0.00,OVC,,0.34,WeatherDisplay:10.37,2013-04-01 12:50:00,
2013-04-01 09:00:00,42.3,41.0,29.60,West,265,0.0,5.0,95,0.00,OVC,,0.34,WeatherDisplay:10.37,2013-04-01 13:00:00,
2013-04-01 09:05:00,42.5,41.2,29.60,West,265,0.0,2.0,95,0.00,BKN,,0.34,WeatherDisplay:10.37,2013-04-01 13:05:00,
2013-04-01 09:10:00,42.9,41.5,29.60,West,271,1.0,3.0,95,0.00,BKN,,0.34,WeatherDisplay:10.37,2013-04-01 13:10:00,
2013-04-01 09:20:00,43.4,41.8,29.60,West,274,0.0,1.0,94,0.00,BKN,,0.34,WeatherDisplay:10.37,2013-04-01 13:20:00,
2013-04-01 09:30:00,44.0,41.8,29.60,West,274,0.0,2.0,92,0.00,BKN,,0.34,WeatherDisplay:10.37,2013-04-01 13:30:00,
2013-04-01 09:35:00,44.3,42.2,29.60,WSW,257,1.0,3.0,92,0.00,BKN,,0.34,WeatherDisplay:10.37,2013-04-01 13:35:00,
2013-04-01 09:45:00,45.3,42.3,29.59,West,276,2.0,3.0,89,0.00,BKN,,0.34,WeatherDisplay:10.37,2013-04-01 13:45:00,
2013-04-01 09:50:00,45.8,42.8,29.60,West,273,1.0,4.0,89,0.00,BKN,,0.34,WeatherDisplay:10.37,2013-04-01 13:50:00,
2013-04-01 09:55:00,46.3,42.6,29.59,WSW,249,2.0,5.0,87,0.00,BKN,,0.34,WeatherDisplay:10.37,2013-04-01 13:55:00,
2013-04-01 10:05:00,47.1,43.1,29.59,West,261,1.0,3.0,86,0.00,BKN,,0.34,WeatherDisplay:10.37,2013-04-01 14:05:00,
2013-04-01 10:10:00,47.4,42.5,29.59,West,270,1.0,5.0,83,0.00,BKN,,0.34,WeatherDisplay:10.37,2013-04-01 14:10:00,
2013-04-01 10:15:00,47.6,42.4,29.59,WSW,246,1.0,4.0,82,0.00,BKN,,0.34,WeatherDisplay:10.37,2013-04-01 14:15:00,
2013-04-01 10:20:00,47.8,42.3,29.59,SW,236,1.0,6.0,81,0.00,SCT,,0.34,WeatherDisplay:10.37,2013-04-01 14:20:00,
2013-04-01 10:30:00,48.4,42.8,29.59,WNW,295,1.0,4.0,81,0.00,SCT,,0.34,WeatherDisplay:10.37,2013-04-01 14:30:00,
2013-04-01 10:35:00,48.5,42.6,29.59,West,263,0.0,3.0,80,0.00,SCT,,0.34,WeatherDisplay:10.37,2013-04-01 14:35:00,
2013-04-01 10:45:00,48.8,42.3,29.58,WNW,285,0.0,2.0,78,0.00,SCT,,0.34,WeatherDisplay:10.37,2013-04-01 14:45:00,
2013-04-01 10:55:00,49.5,42.9,29.59,SSW,212,0.0,1.0,78,0.00,SCT,,0.34,WeatherDisplay:10.37,2013-04-01 14:55:00,
2013-04-01 11:00:00,49.8,42.9,29.59,SW,231,0.0,6.0,77,0.00,SCT,,0.34,WeatherDisplay:10.37,2013-04-01 15:00:00,
2013-04-01 11:05:00,50.0,42.7,29.59,SW,220,0.0,1.0,76,0.00,FEW,,0.34,WeatherDisplay:10.37,2013-04-01 15:05:00,
2013-04-01 11:10:00,50.1,42.5,29.59,SW,236,0.0,4.0,75,0.00,FEW,,0.34,WeatherDisplay:10.37,2013-04-01 15:10:00,
2013-04-01 11:15:00,50.1,42.5,29.59,West,261,1.0,5.0,75,0.00,FEW,,0.34,WeatherDisplay:10.37,2013-04-01 15:15:00,
2013-04-01 11:20:00,50.3,43.0,29.58,SSW,213,1.0,4.0,76,0.00,FEW,,0.34,WeatherDisplay:10.37,2013-04-01 15:20:00,
2013-04-01 11:25:00,50.6,42.6,29.58,SSW,210,1.0,3.0,74,0.00,FEW,,0.34,WeatherDisplay:10.37,2013-04-01 15:25:00,
2013-04-01 11:30:00,51.0,43.7,29.57,South,186,0.0,2.0,76,0.00,FEW,,0.34,WeatherDisplay:10.37,2013-04-01 15:30:00,
2013-04-01 11:35:00,51.4,42.6,29.57,South,181,1.0,4.0,72,0.00,FEW,,0.34,WeatherDisplay:10.37,2013-04-01 15:35:00,
2013-04-01 11:40:00,51.6,42.5,29.57,WSW,241,1.0,5.0,71,0.00,FEW,,0.34,WeatherDisplay:10.37,2013-04-01 15:40:00,
2013-04-01 11:45:00,51.8,43.4,29.57,WNW,291,1.0,5.0,73,0.00,FEW,,0.34,WeatherDisplay:10.37,2013-04-01 15:45:00,
2013-04-01 11:50:00,52.3,42.8,29.56,WSW,255,2.0,4.0,70,0.00,FEW,,0.34,WeatherDisplay:10.37,2013-04-01 15:50:00,
2013-04-01 11:55:00,52.8,42.5,29.56,WSW,238,1.0,5.0,68,0.00,FEW,,0.34,WeatherDisplay:10.37,2013-04-01 15:55:00,
2013-04-01 12:00:00,53.0,42.3,29.55,WSW,258,0.0,4.0,67,0.00,FEW,,0.34,WeatherDisplay:10.37,2013-04-01 16:00:00,
2013-04-01 12:05:00,53.2,43.0,29.55,WNW,283,2.0,5.0,68,0.00,FEW,,0.34,WeatherDisplay:10.37,2013-04-01 16:05:00,
2013-04-01 12:10:00,53.5,42.4,29.55,WNW,283,0.0,5.0,66,0.00,FEW,,0.34,WeatherDisplay:10.37,2013-04-01 16:10:00,
2013-04-01 12:15:00,53.7,43.0,29.55,WNW,286,2.0,7.0,67,0.00,FEW,,0.34,WeatherDisplay:10.37,2013-04-01 16:15:00,
2013-04-01 12:20:00,53.9,43.2,29.55,West,279,2.0,5.0,67,0.00,FEW,,0.34,WeatherDisplay:10.37,2013-04-01 16:20:00,
2013-04-01 12:25:00,54.1,43.3,29.55,West,260,3.0,6.0,67,0.00,FEW,,0.34,WeatherDisplay:10.37,2013-04-01 16:25:00,
2013-04-01 12:30:00,54.2,43.1,29.55,WSW,241,2.0,7.0,66,0.00,FEW,,0.34,WeatherDisplay:10.37,2013-04-01 16:30:00,
2013-04-01 12:35:00,54.5,43.0,29.55,SW,231,0.0,7.0,65,0.00,FEW,,0.34,WeatherDisplay:10.37,2013-04-01 16:35:00,
2013-04-01 12:40:00,54.7,43.6,29.55,SW,223,2.0,7.0,66,0.00,FEW,,0.34,WeatherDisplay:10.37,2013-04-01 16:40:00,
2013-04-01 12:45:00,55.2,43.2,29.55,South,188,1.0,6.0,64,0.00,FEW,,0.34,WeatherDisplay:10.37,2013-04-01 16:45:00,
2013-04-01 12:50:00,55.5,43.9,29.54,SSW,213,1.0,6.0,65,0.00,FEW,,0.34,WeatherDisplay:10.37,2013-04-01 16:50:00,
2013-04-01 13:00:00,55.4,43.0,29.54,South,187,0.0,6.0,63,0.00,FEW,,0.34,WeatherDisplay:10.37,2013-04-01 17:00:00,
2013-04-01 13:05:00,55.5,44.0,29.54,WSW,240,2.0,4.0,65,0.00,FEW,,0.34,WeatherDisplay:10.37,2013-04-01 17:05:00,
2013-04-01 13:15:00,56.2,43.4,29.53,West,273,3.0,6.0,62,0.00,FEW,,0.34,WeatherDisplay:10.37,2013-04-01 17:15:00,
2013-04-01 13:20:00,56.4,43.9,29.53,SW,235,1.0,7.0,63,0.00,FEW,,0.34,WeatherDisplay:10.37,2013-04-01 17:20:00,
2013-04-01 13:30:00,57.0,43.2,29.53,SSW,199,2.0,6.0,60,0.00,FEW,,0.34,WeatherDisplay:10.37,2013-04-01 17:30:00,
2013-04-01 13:35:00,57.2,43.8,29.53,SW,215,1.0,6.0,61,0.00,FEW,,0.34,WeatherDisplay:10.37,2013-04-01 17:35:00,
2013-04-01 13:40:00,57.2,42.6,29.52,SSW,212,2.0,4.0,58,0.00,FEW,,0.34,WeatherDisplay:10.37,2013-04-01 17:40:00,
2013-04-01 13:45:00,57.0,42.4,29.52,SSW,201,0.0,6.0,58,0.00,FEW,,0.34,WeatherDisplay:10.37,2013-04-01 17:45:00,
2013-04-01 13:50:00,56.9,42.7,29.52,South,191,0.0,5.0,59,0.00,FEW,,0.34,WeatherDisplay:10.37,2013-04-01 17:50:00,
2013-04-01 14:00:00,56.7,42.5,29.51,WSW,240,0.0,3.0,59,0.00,FEW,,0.34,WeatherDisplay:10.37,2013-04-01 18:00:00,
2013-04-01 14:10:00,56.6,41.5,29.51,West,266,1.0,4.0,57,0.00,FEW,,0.34,WeatherDisplay:10.37,2013-04-01 18:10:00,
2013-04-01 14:15:00,56.7,42.0,29.51,West,270,1.0,6.0,58,0.00,FEW,,0.34,WeatherDisplay:10.37,2013-04-01 18:15:00,
2013-04-01 14:20:00,56.8,42.2,29.50,SW,224,3.0,7.0,58,0.00,BKN,,0.34,WeatherDisplay:10.37,2013-04-01 18:20:00,
2013-04-01 14:25:00,57.0,40.0,29.50,SW,220,2.0,6.0,53,0.00,BKN,,0.34,WeatherDisplay:10.37,2013-04-01 18:25:00,
2013-04-01 14:30:00,57.1,40.1,29.50,SW,220,1.0,6.0,53,0.00,BKN,,0.34,WeatherDisplay:10.37,2013-04-01 18:30:00,
2013-04-01 14:35:00,57.3,39.8,29.50,South,185,1.0,9.0,52,0.00,BKN,,0.34,WeatherDisplay:10.37,2013-04-01 18:35:00,
2013-04-01 14:40:00,57.4,39.9,29.49,South,184,0.0,7.0,52,0.00,BKN,,0.34,WeatherDisplay:10.37,2013-04-01 18:40:00,
2013-04-01 14:45:00,57.8,40.8,29.49,SSW,193,2.0,9.0,53,0.00,BKN,,0.34,WeatherDisplay:10.37,2013-04-01 18:45:00,
2013-04-01 14:50:00,58.5,40.4,29.48,SSW,207,5.0,9.0,51,0.00,BKN,,0.34,WeatherDisplay:10.37,2013-04-01 18:50:00,
2013-04-01 14:55:00,59.2,41.5,29.48,SSW,211,3.0,12.0,52,0.00,BKN,,0.34,WeatherDisplay:10.37,2013-04-01 18:55:00,
2013-04-01 15:00:00,59.6,39.8,29.48,SW,225,2.0,9.0,48,0.00,BKN,,0.34,WeatherDisplay:10.37,2013-04-01 19:00:00,
2013-04-01 15:05:00,59.9,40.1,29.48,SW,225,3.0,7.0,48,0.00,BKN,,0.34,WeatherDisplay:10.37,2013-04-01 19:05:00,
2013-04-01 15:10:00,60.0,40.2,29.48,SW,224,3.0,7.0,48,0.00,BKN,,0.34,WeatherDisplay:10.37,2013-04-01 19:10:00,
2013-04-01 15:15:00,59.9,39.6,29.48,SW,233,3.0,8.0,47,0.00,BKN,,0.34,WeatherDisplay:10.37,2013-04-01 19:15:00,
2013-04-01 15:20:00,59.8,40.1,29.47,SSW,208,5.0,11.0,48,0.00,BKN,,0.34,WeatherDisplay:10.37,2013-04-01 19:20:00,
2013-04-01 15:30:00,58.8,40.2,29.49,SW,221,6.0,10.0,50,0.00,BKN,,0.34,WeatherDisplay:10.37,2013-04-01 19:30:00,
2013-04-01 15:35:00,56.6,41.1,29.52,WSW,254,7.0,19.0,56,0.00,BKN,,0.34,WeatherDisplay:10.37,2013-04-01 19:35:00,
2013-04-01 15:40:00,53.9,42.4,29.53,West,267,3.0,12.0,65,0.00,BKN,,0.34,WeatherDisplay:10.37,2013-04-01 19:40:00,
2013-04-01 15:45:00,51.7,42.6,29.53,West,272,3.0,12.0,71,0.00,BKN,,0.34,WeatherDisplay:10.37,2013-04-01 19:45:00,
2013-04-01 15:55:00,49.4,42.1,29.53,West,273,1.0,6.0,76,0.00,-RA,,0.34,WeatherDisplay:10.37,2013-04-01 19:55:00,
2013-04-01 16:00:00,48.9,42.0,29.53,WNW,287,3.0,7.0,77,0.00,-RA,,0.34,WeatherDisplay:10.37,2013-04-01 20:00:00,
2013-04-01 16:05:00,48.4,41.8,29.52,WNW,291,1.0,7.0,78,0.00,-RA,,0.34,WeatherDisplay:10.37,2013-04-01 20:05:00,
2013-04-01 16:10:00,48.3,42.1,29.52,West,267,3.0,9.0,79,0.00,-RA,,0.34,WeatherDisplay:10.37,2013-04-01 20:10:00,
2013-04-01 16:20:00,48.1,42.3,29.53,WNW,295,2.0,19.0,80,0.00,-RA,,0.34,WeatherDisplay:10.37,2013-04-01 20:20:00,
2013-04-01 16:25:00,48.1,42.2,29.53,WNW,289,2.0,6.0,80,0.00,-RA,,0.34,WeatherDisplay:10.37,2013-04-01 20:25:00,
2013-04-01 16:30:00,48.1,42.2,29.53,West,276,0.0,4.0,80,0.00,-RA,,0.34,WeatherDisplay:10.37,2013-04-01 20:30:00,
2013-04-01 16:40:00,48.1,42.2,29.53,West,279,1.0,3.0,80,0.00,-RA,,0.34,WeatherDisplay:10.37,2013-04-01 20:40:00,
2013-04-01 16:45:00,48.1,41.9,29.53,WSW,256,2.0,5.0,79,0.00,-RA,,0.34,WeatherDisplay:10.37,2013-04-01 20:45:00,
2013-04-01 16:50:00,48.0,42.1,29.54,WSW,243,1.0,10.0,80,0.00,-RA,,0.34,WeatherDisplay:10.37,2013-04-01 20:50:00,
2013-04-01 16:55:00,47.9,41.4,29.54,West,278,1.0,9.0,78,0.00,-RA,,0.34,WeatherDisplay:10.37,2013-04-01 20:55:00,
2013-04-01 17:00:00,47.9,41.4,29.55,West,272,0.0,5.0,78,0.00,-RA,,0.34,WeatherDisplay:10.37,2013-04-01 21:00:00,
2013-04-01 17:05:00,47.9,41.0,29.55,WSW,250,2.0,3.0,77,0.00,-RA,,0.34,WeatherDisplay:10.37,2013-04-01 21:05:00,
2013-04-01 17:10:00,47.9,39.7,29.55,West,270,1.0,7.0,73,0.00,-RA,,0.34,WeatherDisplay:10.37,2013-04-01 21:10:00,
2013-04-01 17:15:00,47.9,39.7,29.56,WNW,294,2.0,19.0,73,0.00,-RA,,0.34,WeatherDisplay:10.37,2013-04-01 21:15:00,
2013-04-01 17:20:00,47.9,38.9,29.56,WNW,289,2.0,19.0,71,0.00,BKN,,0.34,WeatherDisplay:10.37,2013-04-01 21:20:00,
2013-04-01 17:25:00,47.8,38.8,29.57,West,273,2.0,7.0,71,0.00,BKN,,0.34,WeatherDisplay:10.37,2013-04-01 21:25:00,
2013-04-01 17:30:00,47.7,37.7,29.58,West,270,2.0,7.0,68,0.00,BKN,,0.34,WeatherDisplay:10.37,2013-04-01 21:30:00,
2013-04-01 17:35:00,47.6,36.0,29.58,WSW,258,6.0,14.0,64,0.00,BKN,,0.34,WeatherDisplay:10.37,2013-04-01 21:35:00,
2013-04-01 17:40:00,47.2,35.3,29.58,WSW,248,1.0,12.0,63,0.00,BKN,,0.34,WeatherDisplay:10.37,2013-04-01 21:40:00,
2013-04-01 17:45:00,46.9,35.0,29.59,West,268,2.0,12.0,63,0.00,BKN,,0.34,WeatherDisplay:10.37,2013-04-01 21:45:00,
2013-04-01 17:50:00,46.7,34.4,29.59,West,263,3.0,19.0,62,0.00,BKN,,0.34,WeatherDisplay:10.37,2013-04-01 21:50:00,
2013-04-01 17:55:00,46.6,33.9,29.59,West,262,6.0,13.0,61,0.00,BKN,,0.34,WeatherDisplay:10.37,2013-04-01 21:55:00,
2013-04-01 18:00:00,46.6,33.4,29.60,WSW,247,6.0,19.0,60,0.00,BKN,,0.34,WeatherDisplay:10.37,2013-04-01 22:00:00,
2013-04-01 18:05:00,46.3,31.0,29.60,West,268,5.0,12.0,55,0.00,BKN,,0.34,WeatherDisplay:10.37,2013-04-01 22:05:00,
2013-04-01 18:10:00,46.0,30.8,29.60,West,270,6.0,10.0,55,0.00,BKN,,0.34,WeatherDisplay:10.37,2013-04-01 22:10:00,
2013-04-01 18:15:00,45.5,29.3,29.61,WSW,241,5.0,20.0,53,0.00,BKN,,0.34,WeatherDisplay:10.37,2013-04-01 22:15:00,
2013-04-01 18:20:00,44.9,29.2,29.61,WSW,256,2.0,8.0,54,0.00,BKN,,0.34,WeatherDisplay:10.37,2013-04-01 22:20:00,
2013-04-01 18:25:00,44.5,28.4,29.61,West,281,3.0,13.0,53,0.00,BKN,,0.34,WeatherDisplay:10.37,2013-04-01 22:25:00,
2013-04-01 18:30:00,44.2,28.6,29.61,West,272,2.0,9.0,54,0.00,BKN,,0.34,WeatherDisplay:10.37,2013-04-01 22:30:00,
2013-04-01 18:35:00,43.9,27.4,29.61,WNW,283,1.0,9.0,52,0.00,BKN,,0.34,WeatherDisplay:10.37,2013-04-01 22:35:00,
2013-04-01 18:40:00,43.8,27.7,29.61,WNW,285,5.0,9.0,53,0.00,BKN,,0.34,WeatherDisplay:10.37,2013-04-01 22:40:00,
2013-04-01 18:45:00,43.5,27.0,29.61,West,276,3.0,7.0,52,0.00,BKN,,0.34,WeatherDisplay:10.37,2013-04-01 22:45:00,
2013-04-01 18:50:00,43.2,26.7,29.62,West,260,6.0,10.0,52,0.00,BKN,,0.34,WeatherDisplay:10.37,2013-04-01 22:50:00,
2013-04-01 18:55:00,43.0,27.0,29.62,West,271,2.0,5.0,53,0.00,BKN,,0.34,WeatherDisplay:10.37,2013-04-01 22:55:00,
2013-04-01 19:00:00,42.8,26.4,29.62,WNW,285,5.0,13.0,52,0.00,BKN,,0.34,WeatherDisplay:10.37,2013-04-01 23:00:00,
2013-04-01 19:05:00,42.6,27.1,29.63,West,278,0.0,5.0,54,0.00,SCT,,0.34,WeatherDisplay:10.37,2013-04-01 23:05:00,
2013-04-01 19:10:00,42.5,26.6,29.64,SW,233,0.0,6.0,53,0.00,SCT,,0.34,WeatherDisplay:10.37,2013-04-01 23:10:00,
2013-04-01 19:15:00,42.4,27.4,29.63,NNE,29,0.0,3.0,55,0.00,SCT,,0.34,WeatherDisplay:10.37,2013-04-01 23:15:00,
2013-04-01 19:20:00,42.3,27.3,29.64,WNW,287,1.0,3.0,55,0.00,SCT,,0.34,WeatherDisplay:10.37,2013-04-01 23:20:00,
2013-04-01 19:25:00,42.2,27.6,29.65,West,276,1.0,6.0,56,0.00,SCT,,0.34,WeatherDisplay:10.37,2013-04-01 23:25:00,
2013-04-01 19:30:00,42.0,27.9,29.65,WNW,284,2.0,19.0,57,0.00,SCT,,0.34,WeatherDisplay:10.37,2013-04-01 23:30:00,
2013-04-01 19:35:00,41.8,25.9,29.65,WNW,294,2.0,8.0,53,0.00,SCT,,0.34,WeatherDisplay:10.37,2013-04-01 23:35:00,
2013-04-01 19:40:00,41.5,26.5,29.65,WNW,285,1.0,5.0,55,0.00,SCT,,0.34,WeatherDisplay:10.37,2013-04-01 23:40:00,
2013-04-01 19:45:00,41.3,25.9,29.66,West,279,1.0,5.0,54,0.00,SCT,,0.34,WeatherDisplay:10.37,2013-04-01 23:45:00,
2013-04-01 19:50:00,41.1,24.8,29.66,WNW,297,2.0,6.0,52,0.00,SCT,,0.34,WeatherDisplay:10.37,2013-04-01 23:50:00,
2013-04-01 19:55:00,40.9,24.6,29.66,WNW,297,3.0,8.0,52,0.00,SCT,,0.34,WeatherDisplay:10.37,2013-04-01 23:55:00,
2013-04-01 20:00:00,40.7,24.0,29.66,WNW,297,2.0,6.0,51,0.00,SCT,,0.34,WeatherDisplay:10.37,2013-04-02 00:00:00,
2013-04-01 20:05:00,40.6,22.9,29.67,NW,304,2.0,6.0,49,0.00,FEW,,0.34,WeatherDisplay:10.37,2013-04-02 00:05:00,
2013-04-01 20:10:00,40.5,23.3,29.67,West,277,3.0,8.0,50,0.00,FEW,,0.34,WeatherDisplay:10.37,2013-04-02 00:10:00,
2013-04-01 20:20:00,40.1,21.5,29.67,WNW,291,1.0,8.0,47,0.00,FEW,,0.34,WeatherDisplay:10.37,2013-04-02 00:20:00,
2013-04-01 20:25:00,39.9,21.3,29.68,West,280,2.0,9.0,47,0.00,FEW,,0.34,WeatherDisplay:10.37,2013-04-02 00:25:00,
2013-04-01 20:30:00,39.7,20.6,29.68,WNW,289,2.0,8.0,46,0.00,FEW,,0.34,WeatherDisplay:10.37,2013-04-02 00:30:00,
2013-04-01 20:35:00,39.5,20.9,29.68,WNW,286,1.0,5.0,47,0.00,FEW,,0.34,WeatherDisplay:10.37,2013-04-02 00:35:00,
2013-04-01 20:40:00,39.2,20.2,29.68,WNW,288,2.0,19.0,46,0.00,FEW,,0.34,WeatherDisplay:10.37,2013-04-02 00:40:00,
2013-04-01 20:45:00,39.1,20.5,29.68,WNW,289,2.0,6.0,47,0.00,FEW,,0.34,WeatherDisplay:10.37,2013-04-02 00:45:00,
2013-04-01 20:50:00,38.8,19.2,29.68,West,272,1.0,19.0,45,0.00,FEW,,0.34,WeatherDisplay:10.37,2013-04-02 00:50:00,
2013-04-01 20:55:00,38.6,18.0,29.69,West,260,6.0,19.0,43,0.00,FEW,,0.34,WeatherDisplay:10.37,2013-04-02 00:55:00,
2013-04-01 21:00:00,38.6,16.9,29.69,West,275,2.0,7.0,41,0.00,FEW,,0.34,WeatherDisplay:10.37,2013-04-02 01:00:00,
2013-04-01 21:10:00,38.2,16.5,29.70,West,273,1.0,19.0,41,0.00,FEW,,0.34,WeatherDisplay:10.37,2013-04-02 01:10:00,
2013-04-01 21:15:00,38.0,16.4,29.70,West,270,2.0,19.0,41,0.00,FEW,,0.34,WeatherDisplay:10.37,2013-04-02 01:15:00,
2013-04-01 21:20:00,38.0,15.8,29.70,West,266,1.0,12.0,40,0.00,CLR,,0.34,WeatherDisplay:10.37,2013-04-02 01:20:00,
2013-04-01 21:25:00,37.8,17.3,29.71,West,273,2.0,5.0,43,0.00,CLR,,0.34,WeatherDisplay:10.37,2013-04-02 01:25:00,
2013-04-01 21:30:00,37.6,15.4,29.71,West,275,2.0,7.0,40,0.00,CLR,,0.34,WeatherDisplay:10.37,2013-04-02 01:30:00,
2013-04-01 21:35:00,37.4,15.2,29.72,West,268,1.0,7.0,40,0.00,CLR,,0.34,WeatherDisplay:10.37,2013-04-02 01:35:00,
2013-04-01 21:40:00,37.2,15.1,29.72,West,270,1.0,4.0,40,0.00,CLR,,0.34,WeatherDisplay:10.37,2013-04-02 01:40:00,
2013-04-01 21:50:00,36.8,14.7,29.72,West,279,2.0,6.0,40,0.00,CLR,,0.34,WeatherDisplay:10.37,2013-04-02 01:50:00,
2013-04-01 21:55:00,36.7,15.7,29.72,WNW,291,1.0,4.0,42,0.00,CLR,,0.34,WeatherDisplay:10.37,2013-04-02 01:55:00,
2013-04-01 22:00:00,36.5,13.8,29.73,WNW,290,1.0,4.0,39,0.00,CLR,,0.34,WeatherDisplay:10.37,2013-04-02 02:00:00,
2013-04-01 22:10:00,36.0,14.6,29.73,WNW,300,0.0,6.0,41,0.00,CLR,,0.34,WeatherDisplay:10.37,2013-04-02 02:10:00,
2013-04-01 22:15:00,35.8,14.9,29.73,WNW,290,1.0,19.0,42,0.00,CLR,,0.34,WeatherDisplay:10.37,2013-04-02 02:15:00,
2013-04-01 22:20:00,35.6,14.8,29.73,WNW,283,2.0,6.0,42,0.00,CLR,,0.34,WeatherDisplay:10.37,2013-04-02 02:20:00,
2013-04-01 22:25:00,35.5,14.1,29.74,WNW,282,1.0,19.0,41,0.00,CLR,,0.34,WeatherDisplay:10.37,2013-04-02 02:25:00,
2013-04-01 22:30:00,35.3,15.0,29.74,WNW,298,2.0,5.0,43,0.00,CLR,,0.34,WeatherDisplay:10.37,2013-04-02 02:30:00,
2013-04-01 22:35:00,35.2,15.4,29.74,WNW,293,1.0,19.0,44,0.00,CLR,,0.34,WeatherDisplay:10.37,2013-04-02 02:35:00,
2013-04-01 22:40:00,35.0,15.3,29.74,West,278,0.0,5.0,44,0.00,CLR,,0.34,WeatherDisplay:10.37,2013-04-02 02:40:00,
2013-04-01 22:45:00,34.8,15.1,29.74,NW,309,0.0,3.0,44,0.00,CLR,,0.34,WeatherDisplay:10.37,2013-04-02 02:45:00,
2013-04-01 22:50:00,34.7,14.4,29.75,NW,326,0.0,19.0,43,0.00,CLR,,0.34,WeatherDisplay:10.37,2013-04-02 02:50:00,
2013-04-01 22:55:00,34.5,15.8,29.75,WNW,291,1.0,19.0,46,0.00,CLR,,0.34,WeatherDisplay:10.37,2013-04-02 02:55:00,
2013-04-01 23:00:00,34.3,16.1,29.75,West,268,0.0,3.0,47,0.00,CLR,,0.34,WeatherDisplay:10.37,2013-04-02 03:00:00,
2013-04-01 23:05:00,34.1,15.5,29.74,West,266,0.0,3.0,46,0.00,CLR,,0.34,WeatherDisplay:10.37,2013-04-02 03:05:00,
2013-04-01 23:10:00,34.0,16.3,29.75,West,274,0.0,1.0,48,0.00,CLR,,0.34,WeatherDisplay:10.37,2013-04-02 03:10:00,
2013-04-01 23:15:00,33.8,15.7,29.75,WNW,287,0.0,1.0,47,0.00,CLR,,0.34,WeatherDisplay:10.37,2013-04-02 03:15:00,
2013-04-01 23:20:00,33.6,15.9,29.75,WNW,288,0.0,4.0,48,0.00,CLR,,0.34,WeatherDisplay:10.37,2013-04-02 03:20:00,
2013-04-01 23:25:00,33.4,16.7,29.75,WNW,290,1.0,4.0,50,0.00,CLR,,0.34,WeatherDisplay:10.37,2013-04-02 03:25:00,
2013-04-01 23:30:00,33.2,17.0,29.75,West,279,1.0,3.0,51,0.00,CLR,,0.34,WeatherDisplay:10.37,2013-04-02 03:30:00,
2013-04-01 23:35:00,33.1,16.0,29.75,West,279,0.0,6.0,49,0.00,CLR,,0.34,WeatherDisplay:10.37,2013-04-02 03:35:00,
2013-04-01 23:40:00,33.1,16.5,29.75,West,276,2.0,6.0,50,0.00,CLR,,0.34,WeatherDisplay:10.37,2013-04-02 03:40:00,
2013-04-01 23:45:00,33.1,16.0,29.76,West,280,1.0,19.0,49,0.00,CLR,,0.34,WeatherDisplay:10.37,2013-04-02 03:45:00,
2013-04-01 23:55:00,33.1,16.5,29.76,WNW,283,0.0,19.0,50,0.00,CLR,,0.34,WeatherDisplay:10.37,2013-04-02 03:55:00,